Weather History for KY19 - January, 2012

Change the Weather History Date:

Tuesday, January 3, 2012

  Actual Average (KBIS) Record (KBIS)
Temperature  
Mean Temperature 36 °F 13 °F  
Max Temperature 53 °F 23 °F 55 °F (2012)
Min Temperature 19 °F 2 °F -31 °F (1919)
Degree Days  
Heating Degree Days 29 52  
Month to date heating degree days 156  
Since 1 July heating degree days 3656  
Cooling Degree Days 0 0  
Month to date cooling degree days 0  
Year to date cooling degree days 0  
Moisture  
Dew Point 20 °F    
Average Humidity 56    
Maximum Humidity 80    
Minimum Humidity 33    
Precipitation  
Precipitation 0.00 in 0.02 in 0.21 in (1994)
Month to date precipitation 0.05  
Year to date precipitation 0.05  
Snow  
Snow 0.00 in 0.40 in 3.10 in (1994)
Month to date snowfall 1.0  
Since 1 July snowfall 21.5  
Snow Depth -    
Sea Level Pressure  
Sea Level Pressure 29.89 in    
Wind  
Wind Speed 15 mph (WSW)    
Max Wind Speed 34 mph    
Max Gust Speed 45 mph    
Visibility 10 miles    
Events      
T = Trace of Precipitation, MM = Missing Value Source: NWS Daily Summary

Daily Weather History Graph

Daily Weather History Graph

Search for Another Location

Airport or City:

Trip Planner

Search our weather history database for the weather conditions in past years. The results will help you decide how hot, cold, wet, or windy it might be!

Date:

Astronomy

Jan. 03, 2012 Rise Set
Actual Time 8:28 AM CST 5:07 PM CST
Civil Twilight 7:53 AM CST 5:42 PM CST
Nautical Twilight 7:15 AM CST 6:20 PM CST
Astronomical Twilight 6:38 AM CST 6:57 PM CST
Moon 1:01 PM CST (1/3) 3:14 AM CST (1/3)
Length of Visible Light 9h 49m
Length of Day
8h 39m
Waxing Gibbous, 73% of the Moon is Illuminated
Jan 3
Waxing Gibbous
Jan 9
Full
Jan 16
Last Quarter
Jan 23
New
Jan 30
First Quarter

Hourly Weather History & Observations

Time (CST) Temp. Windchill Dew Point Humidity Pressure Visibility Wind Dir Wind Speed Gust Speed Precip Events Conditions
12:15 AM 19.4 °F 6.6 °F 6.8 °F 58% 30.03 in 10.0 mi SSE 12.7 mph - N/A   Clear
12:35 AM 19.4 °F 6.0 °F 6.8 °F 58% 30.01 in 10.0 mi South 13.8 mph 18.4 mph N/A   Clear
12:55 AM 19.4 °F 6.0 °F 6.8 °F 58% 30.00 in 10.0 mi South 13.8 mph - N/A   Clear
1:15 AM 19.4 °F 6.0 °F 6.8 °F 58% 29.97 in 10.0 mi South 13.8 mph - N/A   Clear
1:35 AM 19.4 °F 6.0 °F 8.6 °F 63% 29.96 in 10.0 mi South 13.8 mph - N/A   Clear
1:55 AM 19.4 °F 4.5 °F 8.6 °F 63% 29.95 in 10.0 mi South 17.3 mph - N/A   Clear
2:15 AM 19.4 °F 4.1 °F 8.6 °F 63% 29.92 in 10.0 mi South 18.4 mph - N/A   Clear
2:35 AM 19.4 °F 3.6 °F 8.6 °F 63% 29.92 in 10.0 mi South 19.6 mph 28.8 mph N/A   Clear
2:55 AM 19.4 °F 5.5 °F 8.6 °F 63% 29.92 in 10.0 mi South 15.0 mph - N/A   Clear
3:15 AM 19.4 °F 5.5 °F 8.6 °F 63% 29.91 in 10.0 mi South 15.0 mph - N/A   Clear
3:35 AM 19.4 °F 6.6 °F 8.6 °F 63% 29.91 in 10.0 mi South 12.7 mph - N/A   Clear
3:55 AM 19.4 °F 6.6 °F 8.6 °F 63% 29.89 in 10.0 mi South 12.7 mph - N/A   Clear
4:15 AM 19.4 °F 6.6 °F 10.4 °F 68% 29.88 in 10.0 mi South 12.7 mph - N/A   Clear
4:35 AM 21.2 °F 10.1 °F 10.4 °F 63% 29.88 in 10.0 mi South 10.4 mph - N/A   Clear
4:55 AM 23.0 °F 13.1 °F 10.4 °F 59% 29.87 in 10.0 mi South 9.2 mph - N/A   Clear
5:15 AM 23.0 °F 12.4 °F 12.2 °F 63% 29.86 in 10.0 mi South 10.4 mph - N/A   Clear
5:35 AM 23.0 °F 11.7 °F 12.2 °F 63% 29.85 in 10.0 mi SSW 11.5 mph - N/A   Clear
5:55 AM 24.8 °F 15.3 °F 14.0 °F 64% 29.84 in 10.0 mi SSW 9.2 mph - N/A   Clear
6:15 AM 24.8 °F 16.9 °F 14.0 °F 64% 29.84 in 10.0 mi SW 6.9 mph - N/A   Clear
6:35 AM 24.8 °F 17.9 °F 15.8 °F 69% 29.84 in 10.0 mi SW 5.8 mph - N/A   Clear
6:55 AM 26.6 °F 18.2 °F 15.8 °F 64% 29.83 in 10.0 mi SW 8.1 mph - N/A   Clear
7:15 AM 24.8 °F 16.9 °F 15.8 °F 69% 29.85 in 10.0 mi WSW 6.9 mph - N/A   Clear
7:35 AM 28.4 °F 21.2 °F 17.6 °F 64% 29.84 in 10.0 mi WSW 6.9 mph - N/A   Clear
8:15 AM 28.4 °F 21.2 °F 19.4 °F 69% 29.82 in 10.0 mi SW 6.9 mph - N/A   Clear
8:35 AM 32.0 °F 26.4 °F 23.0 °F 69% 29.82 in 10.0 mi WSW 5.8 mph - N/A   Clear
8:55 AM 32.0 °F 24.8 °F 23.0 °F 69% 29.82 in 10.0 mi WSW 8.1 mph - N/A   Clear
9:15 AM 32.0 °F 25.6 °F 23.0 °F 69% 29.83 in 10.0 mi West 6.9 mph - N/A   Clear
9:35 AM 32.0 °F 24.2 °F 23.0 °F 69% 29.84 in 10.0 mi West 9.2 mph - N/A   Clear
9:55 AM 33.8 °F 26.4 °F 24.8 °F 70% 29.83 in 10.0 mi WSW 9.2 mph - N/A   Clear
10:15 AM 35.6 °F 27.1 °F 24.8 °F 65% 29.83 in 10.0 mi WSW 12.7 mph - N/A   Clear
10:35 AM 41.0 °F 34.3 °F 24.8 °F 53% 29.84 in 10.0 mi WSW 11.5 mph - N/A   Clear
10:55 AM 41.0 °F 33.9 °F 26.6 °F 57% 29.84 in 10.0 mi WSW 12.7 mph - N/A   Clear
11:15 AM 46.4 °F 41.1 °F 26.6 °F 46% 29.83 in 10.0 mi WSW 11.5 mph - N/A   Clear
11:35 AM 50.0 °F - 24.8 °F 37% 29.82 in 10.0 mi West 21.9 mph 28.8 mph N/A   Clear
11:55 AM 51.8 °F - 24.8 °F 35% 29.81 in 10.0 mi West 27.6 mph 32.2 mph N/A   Clear
12:15 PM 53.6 °F - 24.8 °F 33% 29.80 in 10.0 mi WNW 28.8 mph 39.1 mph N/A   Clear
12:35 PM 53.6 °F - 24.8 °F 33% 29.80 in 10.0 mi WNW 24.2 mph 36.8 mph N/A   Clear
12:55 PM 53.6 °F - 24.8 °F 33% 29.79 in 10.0 mi WNW 28.8 mph 41.4 mph N/A   Clear
1:15 PM 53.6 °F - 26.6 °F 35% 29.77 in 10.0 mi West 31.1 mph 41.4 mph N/A   Clear
1:35 PM 53.6 °F - 26.6 °F 35% 29.78 in 10.0 mi WNW 34.5 mph 42.6 mph N/A   Clear
1:55 PM 53.6 °F - 26.6 °F 35% 29.80 in 10.0 mi WNW 26.5 mph 40.3 mph N/A   Clear
2:15 PM 53.6 °F - 28.4 °F 38% 29.81 in 10.0 mi WNW 32.2 mph 41.4 mph N/A   Clear
2:55 PM 51.8 °F - 28.4 °F 41% 29.79 in 10.0 mi WNW 27.6 mph 35.7 mph N/A   Clear
3:15 PM 50.0 °F - 28.4 °F 43% 29.81 in 10.0 mi WNW 34.5 mph 44.9 mph N/A   Clear
3:35 PM 50.0 °F - 28.4 °F 43% 29.83 in 10.0 mi NW 29.9 mph 40.3 mph N/A   Clear
3:55 PM 48.2 °F - 28.4 °F 46% 29.86 in 10.0 mi NW 24.2 mph 38.0 mph N/A   Clear
4:15 PM 48.2 °F - 28.4 °F 46% 29.88 in 10.0 mi NW 23.0 mph 34.5 mph N/A   Clear
4:35 PM 46.4 °F 38.5 °F 28.4 °F 50% 29.91 in 10.0 mi NW 21.9 mph 31.1 mph N/A   Clear
4:55 PM 44.6 °F 36.4 °F 28.4 °F 53% 29.93 in 10.0 mi NW 20.7 mph 26.5 mph N/A   Clear
5:15 PM 44.6 °F 36.1 °F 26.6 °F 49% 29.95 in 10.0 mi NW 21.9 mph 28.8 mph N/A   Clear
5:35 PM 42.8 °F 35.1 °F 26.6 °F 53% 29.97 in 10.0 mi NW 16.1 mph 25.3 mph N/A   Clear
5:55 PM 42.8 °F 34.3 °F 26.6 °F 53% 29.98 in 10.0 mi NW 19.6 mph 27.6 mph N/A   Clear
6:15 PM 41.0 °F 32.2 °F 24.8 °F 53% 30.01 in 10.0 mi NW 18.4 mph 29.9 mph N/A   Clear
6:35 PM 41.0 °F 32.2 °F 24.8 °F 53% 30.02 in 10.0 mi NW 18.4 mph 27.6 mph N/A   Clear
6:55 PM 39.2 °F 31.6 °F 24.8 °F 56% 30.04 in 10.0 mi NW 12.7 mph - N/A   Clear
7:15 PM 39.2 °F 32.5 °F 24.8 °F 56% 30.05 in 10.0 mi NW 10.4 mph - N/A   Clear
7:35 PM 37.4 °F 29.8 °F 24.8 °F 60% 30.06 in 10.0 mi NNW 11.5 mph - N/A   Clear
7:55 PM 35.6 °F 28.0 °F 24.8 °F 65% 30.07 in 10.0 mi NNW 10.4 mph - N/A   Clear
8:15 PM 33.8 °F 26.4 °F 24.8 °F 70% 30.07 in 10.0 mi NW 9.2 mph - N/A   Clear
8:35 PM 32.0 °F 24.2 °F 26.6 °F 80% 30.08 in 10.0 mi NW 9.2 mph - N/A   Clear
8:55 PM 32.0 °F 25.6 °F 26.6 °F 80% 30.09 in 10.0 mi NW 6.9 mph - N/A   Clear
9:15 PM 32.0 °F 24.2 °F 24.8 °F 75% 30.09 in 10.0 mi WNW 9.2 mph - N/A   Clear
9:35 PM 32.0 °F 23.6 °F 26.6 °F 80% 30.09 in 10.0 mi WNW 10.4 mph - N/A   Clear
9:55 PM 32.0 °F 23.0 °F 26.6 °F 80% 30.10 in 10.0 mi WNW 11.5 mph - N/A   Clear
10:15 PM 32.0 °F 22.5 °F 26.6 °F 80% 30.11 in 10.0 mi WNW 12.7 mph - N/A   Clear
10:35 PM 32.0 °F 23.6 °F 26.6 °F 80% 30.12 in 10.0 mi NW 10.4 mph - N/A   Clear
10:55 PM 32.0 °F 24.8 °F 26.6 °F 80% 30.13 in 10.0 mi WNW 8.1 mph - N/A   Clear
11:15 PM 28.4 °F 20.4 °F 24.8 °F 86% 30.13 in 10.0 mi West 8.1 mph - N/A   Clear
11:35 PM 28.4 °F 21.2 °F 26.6 °F 93% 30.13 in 10.0 mi WSW 6.9 mph - N/A   Clear
11:55 PM 26.6 °F 19.1 °F 26.6 °F 100% 30.13 in 10.0 mi WSW 6.9 mph - N/A   Clear